Date,TemperatureHighF,TemperatureAvgF,TemperatureLowF,DewpointHighF,DewpointAvgF,DewpointLowF,HumidityHigh,HumidityAvg,HumidityLow,PressureMaxIn,PressureMinIn,WindSpeedMaxMPH,WindSpeedAvgMPH,GustSpeedMaxMPH,PrecipitationSumIn
2013-1-1,49.8,47.1,43.4,49.3,43.8,33.5,98,89,63,30.06,29.84,3,0,3,1.11
2013-1-2,49.6,45.2,40.0,49.1,43.0,38.1,98,92,84,30.04,29.80,8,0,8,0.07
2013-1-3,48.3,40.5,33.0,39.2,35.0,27.3,93,81,55,30.21,29.99,8,1,8,0.00
2013-1-4,50.3,37.9,28.4,30.5,24.5,17.4,88,62,28,30.27,30.17,9,1,9,0.00
2013-1-5,47.6,38.1,28.2,38.0,29.0,23.4,91,71,47,30.29,30.17,4,0,5,0.03
2013-1-6,48.2,42.2,37.6,40.9,37.0,33.3,90,82,70,30.18,30.01,11,1,11,0.00
2013-1-7,51.6,41.9,32.3,35.2,32.1,28.5,88,70,46,30.29,30.12,11,2,11,0.00
2013-1-8,50.4,44.3,35.5,42.4,36.4,31.1,88,74,61,30.33,30.23,10,3,10,0.00
2013-1-9,62.2,54.9,49.0,53.3,48.6,40.8,90,80,69,30.33,30.25,6,1,6,0.00
2013-1-10,64.2,58.6,53.0,56.4,53.6,50.1,96,84,71,30.31,30.13,16,3,16,0.02
2013-1-11,65.2,61.1,57.3,63.6,60.3,56.2,98,97,93,30.13,29.98,13,1,13,0.33
2013-1-12,70.7,61.8,56.3,64.4,59.6,55.7,99,93,75,30.04,29.93,5,0,5,0.01
2013-1-13,69.7,62.9,57.5,62.9,59.6,56.0,96,89,76,30.00,29.89,8,1,8,0.01
2013-1-14,64.0,60.0,53.5,63.4,59.2,52.7,98,97,93,29.99,29.89,6,0,8,0.83
2013-1-15,62.4,57.2,52.2,62.1,56.8,51.4,99,99,97,29.98,29.83,7,0,7,0.73
2013-1-16,62.4,55.4,52.3,62.1,54.9,51.8,99,98,97,29.88,29.78,7,1,7,0.44
2013-1-17,55.9,49.6,37.2,55.6,48.7,35.1,99,97,89,30.11,29.54,8,2,12,0.94
2013-1-18,51.9,41.0,31.9,36.0,31.2,24.7,93,71,35,30.39,30.11,6,1,6,0.00
2013-1-19,50.8,40.0,31.5,35.4,31.3,27.0,94,74,40,30.36,30.12,6,0,6,0.00
2013-1-20,60.6,45.3,33.1,41.2,35.4,30.4,95,71,41,30.12,29.97,9,0,9,0.00
2013-1-21,57.9,43.7,33.3,38.0,30.4,18.2,91,63,40,30.03,29.92,11,1,11,0.00
2013-1-22,43.9,35.4,29.2,19.2,15.3,10.9,59,44,29,30.20,30.01,15,2,15,0.00
2013-1-23,48.0,38.1,28.2,35.4,23.8,14.3,83,57,41,30.26,30.06,13,1,13,0.00
2013-1-24,53.2,45.6,35.4,40.8,25.2,7.7,84,50,20,30.29,29.99,17,2,17,0.00
2013-1-25,36.9,30.5,27.8,34.4,20.8,11.1,95,69,43,30.33,30.05,19,4,19,0.00
2013-1-26,54.1,42.5,35.7,39.0,35.4,31.2,97,78,49,30.18,30.03,6,1,6,0.03
2013-1-27,47.0,41.4,35.1,36.1,33.5,30.1,92,74,62,30.39,30.17,12,4,12,0.00
2013-1-28,50.2,45.3,42.3,44.9,38.5,33.0,95,77,68,30.33,30.17,8,2,8,0.00
2013-1-29,67.9,54.5,41.4,60.2,51.2,40.1,96,89,72,30.18,29.86,7,0,7,0.01
2013-1-30,65.2,58.6,42.9,63.4,56.6,38.9,97,93,87,29.86,29.38,25,2,25,1.87
2013-1-31,45.9,40.0,34.2,38.9,27.9,23.5,86,63,42,30.02,29.61,20,2,20,0.00